Other Surface Observations
Issued by NWS

Home | Current Version | Previous Version | Text Only | Print | Product List | Glossary On
Versions: 1 2 3 4 5 6 7 8 9 10 11 12 13 14 15 16 17 18 19 20 21 22 23 24 25 26 27 28 29 30 31 32 33 34 35 36 37 38 39 40 41 42 43 44 45 46 47 48 49 50
000
SXUS52 KTAE 012118
OSOTAE
OSOTAE
North Florida/South Alabama/Southwest Georgia Weather Roundup
National Weather Service Tallahassee Florida
500 PM EDT WED APR 01 2015

Note: "fair" indicates few or no clouds below 12,000 feet with no
significant weather and/or obstructions to visibility.

!FLZ017-115-028-034-025-012200
...North Florida...

CITY           SKY/WX    TMP DP  RH WIND       PRES   REMARKS
TALLAHASSEE    PTSUNNY   87  56  34 NW7       30.02F
APALACHICOLA   MOSUNNY   80  63  55 W14       30.06F
PERRY          SUNNY     78  65  63 S16       30.05F
CROSS CITY       N/A     79  64  60 W12G21    30.06S
JACKSONVILLE   MOSUNNY   84  59  42 NW10      30.00S
$$

!FLZ112-006-005-002-011-012200
...Florida Panhandle...

CITY           SKY/WX    TMP DP  RH WIND       PRES   REMARKS
MARIANNA       SUNNY     84  56  38 W8        30.01F
BONIFAY        FAIR      82  56  40 VRB7      30.03S
PANAMA CITY NW FAIR      79  60  52 SW16      30.04S
TYNDALL AFB    SUNNY     76  64  67 SW10      30.07F
TYND DRONE APT FAIR      73  66  78 SW9G15    30.07F
DE FUNIAK SPR  FAIR      78  60  53 SW12      30.04F
EGLIN AFB      MOSUNNY   78  62  57 W17G25    30.05F
DESTIN         MOSUNNY   75  64  68 SW12G20   30.07S
HURLBURT       MOSUNNY   75  61  61 S13       30.06S
CRESTVIEW      PTSUNNY   82  57  42 W9        30.05F
PENSACOLA      MOSUNNY   77  62  59 S15G23    30.05F
$$

!ALZ063-066-012200
...South Alabama...

CITY           SKY/WX    TMP DP  RH WIND       PRES   REMARKS
DOTHAN         SUNNY     84  57  39 SW13      30.05F
OZARK CAIRNS   SUNNY     84  53  34 W6        30.01F
FT RUCKER HELI MOSUNNY   83  57  41 CALM      30.00F
RUCKER HELI 3  NOT AVBL
RUCKER HELI 2  FAIR      84  56  38 VRB7      30.01F
FLORALA APT    MOSUNNY   82  53  36 SW7       30.04F
ANDALUSIA      MOSUNNY   86  51  29 W7        30.02F
TROY           MOSUNNY   83  57  41 CALM      30.01F
EUFALA         FAIR      85  52  32 S5        30.00F
MOBILE         PTSUNNY   78  59  51 SW13      30.05F
$$

!GAZ120>161-012200
...Southwest and South Central Georgia...

CITY           SKY/WX    TMP DP  RH WIND       PRES   REMARKS
THOMASVILLE    FAIR      84  54  34 W8        30.04S
BAINBRIDGE     SUNNY     84  59  42 CALM      30.02F
MOODY AFB      SUNNY     82  51  33 N14       30.01F
VALDOSTA       SUNNY     84  54  35 VRB5      30.02F
MOULTRIE       SUNNY     82  50  32 N3        30.03F
BLAKELY        MOSUNNY   86  54  32 SW6       30.01F
ALBANY         SUNNY     83  50  31 CALM      30.04S
TIFTON         FAIR      80  48  31 W3        30.03F
FITZGERALD     FAIR      82  49  31 W7        30.05F
CORDELE        FAIR      83  49  31 NW6       30.03F
AMERICUS       FAIR      81  50  34 NE3       30.03F
HOMERVILLE     FAIR      84  54  34 CALM      30.03S
$$

!GMZ750-755-770-775-012200
...Coastal and Buoy Obs...

STATION/POSITION TIME  TEMP    WIND        PRES    VSBY  WAVE
                       AIR SEA DIR/SP/G                  HT/PER
                 (UTC) (F)     (DEG/KT/KT) (MB)    (MI)  (FT/S)
KEATON BEACH     2100   71     240/ 14/ 16 1018.0F
CEDAR KEY        2100   72     260/ 12/ 17 1019.0F
C TOWER          2100   70     280/  8/  9 1018.5F
APALACHICOLA BUO 2050   72 70  230/  8/  8 1019.0F         2/ 5
PANAMA CITY BUOY 2050   74 75  230/ 12/ 12 1019.2S         2/ 4
MOBILE BUOY      2050   74 76  170/  8/  8 1018.7F         2/ 4
ORANGE BCH AL BU 2050   72 74  200/  4/  6 1017.8F         2/ 4
$$



USA.gov is the U.S. government's official web portal to all federal, state and local government web resources and services.